[[[{"header":{"parameterUnit":"kt","parameterCategory":2,"dx":1,"dy":1,"la1":30.253999710083008,"la2":30.299108505249023,"lo1":-89.0895004272461,"lo2":-89.04439544677734,"nx":28,"ny":28,"refTime":"2022-10-23T21:00:00:Z","depth":0,"parameterNumber":1,"parameterNumberName":"U-component_of_WINDS"},"data":[-3.3957,-3.4009,-3.4051,-3.4132,-3.4184,-3.4247,-3.4284,-3.4336,-3.439,-3.4473,-3.4529,-3.458,-3.4652,-3.4732,-3.4797,-3.4819,-3.4844,-3.4831,-3.4859,-3.4875,-3.4881,-3.4886,-3.4875,-3.4835,-3.4835,-3.4836,-3.4836,-3.4836,-3.3965,-3.4016,-3.4071,-3.4153,-3.4201,-3.4239,-3.4309,-3.4347,-3.4404,-3.447,-3.4527,-3.4605,-3.4673,-3.4753,-3.4827,-3.4855,-3.4879,-3.4872,-3.4871,-3.4882,-3.4901,-3.4889,-3.4852,-3.4852,-3.4852,-3.4852,-3.4852,-3.4852,-3.3992,-3.4021,-3.4095,-3.4156,-3.4209,-3.4265,-3.4302,-3.4362,-3.4418,-3.4498,-3.4541,-3.4607,-3.4684,-3.4795,-3.4844,-3.4899,-3.4915,-3.4923,-3.4925,-3.4925,-3.4919,-3.4913,-3.4914,-3.4915,-3.4915,-3.4915,-3.4915,0,-3.4024,-3.4058,-3.4113,-3.4181,-3.4228,-3.4286,-3.4347,-3.4371,-3.446,-3.4503,-3.457,-3.4616,-3.4709,-3.4778,-3.4858,-3.4909,-3.4955,-3.4965,-3.4971,-3.495,-3.4921,-3.4937,-3.4966,-3.4965,-3.4966,-3.4966,-3.4966,-3.4967,-3.4054,-3.4084,-3.4183,-3.4216,-3.426,-3.4313,-3.4354,-3.443,-3.4471,-3.4559,-3.4583,-3.4653,-3.4713,-3.4816,-3.489,-3.496,-3.4984,-3.4978,-3.4995,-3.4974,-3.4984,-3.4981,-3.4985,-3.4973,-3.4972,-3.4972,-3.4971,0,-3.4067,-3.4137,-3.4197,-3.4293,-3.4319,-3.4347,-3.443,-3.4465,-3.4521,-3.4577,-3.4595,-3.4683,-3.4749,-3.4824,-3.4916,-3.4953,-3.5005,-3.5026,-3.4979,-3.4987,-3.499,-3.4988,-3.4986,-3.499,-3.5032,-3.5031,-3.5031,0,-3.4119,-3.4156,-3.4259,-3.429,-3.4335,-3.441,-3.4452,-3.4504,-3.4571,-3.4615,-3.4679,-3.472,-3.481,-3.4863,-3.4919,-3.4975,-3.4992,-3.5025,-3.5039,-3.5019,-3.5015,-3.5043,-3.5044,-3.5071,-3.507,-3.507,-3.507,0,-3.4131,-3.423,-3.4282,-3.4316,-3.4423,-3.4446,-3.4492,-3.4567,-3.4607,-3.4672,-3.4699,-3.477,-3.4809,-3.4864,-3.4935,-3.4943,-3.5005,-3.5031,-3.5038,-3.5036,-3.5048,-3.5046,-3.5025,-3.507,-3.507,-3.507,-3.507,0,-3.4185,-3.4246,-3.431,-3.4401,-3.4424,-3.4459,-3.4532,-3.4579,-3.4654,-3.4691,-3.4743,-3.4794,-3.4849,-3.4869,-3.4947,-3.4937,-3.4973,-3.5009,-3.5011,-3.502,-3.5041,-3.5019,-3.4991,-3.4991,-3.5029,-3.5029,-3.5029,0,-3.4179,-3.4263,-3.4328,-3.4388,-3.4437,-3.4504,-3.4545,-3.4608,-3.4661,-3.4712,-3.4771,-3.4829,-3.486,-3.4889,-3.4917,-3.4981,-3.4993,-3.4982,-3.5057,-3.5059,-3.5034,-3.501,-3.4986,-3.4989,-3.5025,-3.5026,-3.5026,0,-3.4184,-3.4312,-3.4318,-3.436,-3.4455,-3.4497,-3.4544,-3.4617,-3.4647,-3.4712,-3.4754,-3.4838,-3.4865,-3.4912,-3.4962,-3.4987,-3.4987,-3.5014,-3.5017,-3.5006,-3.503,-3.5007,-3.5007,-3.5016,-3.5016,-3.5017,-3.5023,0,-3.4248,-3.4299,-3.4319,-3.4409,-3.4453,-3.4495,-3.4573,-3.4609,-3.4652,-3.4706,-3.4769,-3.4843,-3.4919,-3.4939,-3.4982,-3.5016,-3.5022,-3.505,-3.5076,-3.5059,-3.5063,-3.5065,-3.5063,-3.5064,-3.5065,-3.5066,0,0,-3.4225,-3.43,-3.4369,-3.4416,-3.4458,-3.4527,-3.4565,-3.4614,-3.4711,-3.4739,-3.4753,-3.4881,-3.4941,-3.501,-3.5011,-3.5042,-3.5056,-3.5058,-3.5066,-3.5066,-3.5066,-3.5069,-3.507,-3.5068,-3.5068,-3.5069,-3.5069,0,-3.4264,-3.432,-3.4356,-3.4409,-3.449,-3.4545,-3.4553,-3.4647,-3.4683,-3.4745,-3.4803,-3.4851,-3.4951,-3.5007,-3.5048,-3.5052,-3.5094,-3.507,-3.5045,-3.5074,-3.5072,-3.5071,-3.5073,-3.5073,-3.5072,-3.5071,-3.5071,0,-3.4282,-3.435,-3.4375,-3.4472,-3.4526,-3.4575,-3.462,-3.467,-3.4708,-3.4784,-3.4844,-3.4896,-3.4977,-3.5031,-3.5059,-3.5074,-3.5124,-3.5122,-3.5118,-3.5123,-3.5155,-3.5153,-3.5151,-3.5176,-3.5176,-3.5176,0,0,-3.4306,-3.4354,-3.445,-3.4486,-3.4516,-3.4598,-3.4632,-3.4678,-3.4748,-3.4775,-3.4842,-3.4909,-3.4969,-3.5007,-3.5067,-3.5116,-3.5139,-3.5132,-3.5127,-3.5122,-3.5125,-3.5155,-3.5153,-3.5176,-3.5176,-3.5176,0,0,-3.4318,-3.443,-3.446,-3.4511,-3.4574,-3.4673,-3.4692,-3.4732,-3.4794,-3.4798,-3.488,-3.4901,-3.4954,-3.5003,-3.4995,-3.5078,-3.5101,-3.5105,-3.5043,-3.5038,-3.5034,-3.5021,-3.5053,0,0,0,0,0,-3.4397,-3.4416,-3.4442,-3.4462,-3.4585,-3.4658,-3.4674,-3.4741,-3.4756,-3.477,-3.4833,-3.4875,-3.5015,-3.501,-3.503,-3.5038,-3.5178,-3.5177,-3.5177,-3.511,-3.5104,-3.5099,0,0,0,0,0,0,-3.4406,-3.443,-3.4442,-3.454,-3.4568,-3.4658,-3.4698,-3.4717,-3.4756,-3.4763,-3.4861,-3.4878,-3.4938,-3.5005,-3.5022,-3.5028,-3.5047,-3.5178,-3.5177,-3.5177,-3.5108,-3.5103,-3.5098,0,0,0,0,0,-3.4413,-3.4432,-3.4612,-3.454,-3.4565,-3.4658,-3.4698,-3.4714,-3.4746,-3.4843,-3.486,-3.4792,-3.4936,-3.4955,-3.5015,-3.5019,-3.5036,-3.5042,-3.5177,-3.5177,-3.5177,-3.5105,0,0,0,0,0,0,-3.4418,-3.4449,-3.4618,-3.4628,-3.4538,-3.4655,-3.4675,-3.4711,-3.4824,-3.4842,-3.4778,-3.4782,-3.4935,-3.495,-3.4964,-3.5011,-3.5027,-3.5033,-3.5037,-3.5177,-3.5177,-3.5177,0,0,0,0,0,0,-3.4439,-3.4456,-3.4623,-3.4616,-3.4626,-3.4651,-3.4669,-3.4731,-3.4825,-3.4753,-3.476,-3.4778,-3.4914,-3.4946,-3.4958,-3.5051,-3.502,-3.5026,-3.503,-3.5033,-3.5177,-3.5177,0,0,0,0,0,0,-3.4447,-3.4463,-3.4614,-3.4622,-3.4631,-3.4749,-3.4707,-3.483,-3.4816,-3.4747,-3.4817,-3.4817,-3.491,-3.4923,-3.4953,-3.5041,-3.5049,-3.502,-3.5024,-3.5027,-3.5029,0,0,0,0,0,0,0,-3.4455,-3.4334,-3.4558,-3.4626,-3.4634,-3.4721,-3.4724,-3.4727,-3.4816,-3.4817,-3.4817,-3.4817,-3.4987,-3.4993,-3.5,-3.5033,0,0,-3.502,-3.5023,0,0,0,0,0,0,0,0,-3.4329,-3.4333,-3.4558,-3.456,-3.4562,-3.4722,-3.4724,-3.4726,-3.4816,-3.4817,-3.4817,-3.4817,-3.4988,-3.4994,-3.4999,0,0,0,0,0,0,0,0,0,0,0,0,0,0,0,-3.4559,-3.456,0,-3.4722,-3.4724,-3.4726,-3.4816,-3.4817,-3.4817,-3.4817,-3.499,-3.4994,-3.4999,0,0,0,0,0,0,0,0,0,0,0,0,0,0,0,0,0,0,0,0,0,0,0,0,0,0,0,0,0,0,0,0,0,0,0,0,0,0,0,0,0,0,0,0,0,0,0,0,0,0,0,0,0,0,0,0,0,0,0,0,0,0,0,0,0,0,0,0,0]}],[{"header":{"parameterUnit":"kt","parameterCategory":2,"dx":1,"dy":1,"la1":30.253999710083008,"la2":30.299108505249023,"lo1":-89.0895004272461,"lo2":-89.04439544677734,"nx":28,"ny":28,"refTime":"2022-10-23T21:00:00:Z","depth":0,"parameterNumber":2,"parameterNumberName":"V-component_of_WINDS"},"data":[6.6583,6.6697,6.6752,6.6908,6.6983,6.71,6.7158,6.724,6.7319,6.7464,6.7557,6.7622,6.7721,6.7846,6.7949,6.7976,6.8017,6.8021,6.8051,6.7985,6.798,6.7974,6.7951,6.8028,6.8029,6.8113,6.8114,6.8114,6.654,6.6616,6.6713,6.6843,6.6928,6.6958,6.7064,6.7133,6.7235,6.7331,6.7424,6.7556,6.7666,6.7765,6.788,6.7936,6.7956,6.7964,6.796,6.7976,6.7907,6.7882,6.7946,6.7946,6.7946,6.7946,6.7946,6.7946,6.6476,6.6542,6.6652,6.6757,6.6837,6.6924,6.6996,6.7073,6.7168,6.7293,6.7337,6.7453,6.7558,6.772,6.7786,6.788,6.788,6.7904,6.7911,6.7916,6.7917,6.7795,6.7901,6.7901,6.7901,6.7901,6.7901,0,6.6446,6.6487,6.6581,6.6694,6.6773,6.6864,6.6956,6.7001,6.7101,6.7174,6.7286,6.7359,6.7502,6.7613,6.773,6.7794,6.7831,6.7838,6.7856,6.7838,6.7809,6.7829,6.7717,6.7834,6.7834,6.7833,6.7833,6.7833,6.6388,6.6456,6.6594,6.6654,6.6716,6.681,6.6877,6.6959,6.7026,6.7151,6.7204,6.7315,6.7407,6.7575,6.7662,6.7769,6.7787,6.7827,6.7803,6.7785,6.7791,6.7787,6.7796,6.7829,6.783,6.783,6.7831,0,6.6351,6.6435,6.6556,6.6684,6.6719,6.6786,6.6896,6.6963,6.7029,6.7131,6.7159,6.7261,6.7368,6.7448,6.7584,6.7623,6.774,6.7754,6.7707,6.7714,6.776,6.7756,6.7889,6.7913,6.7831,6.7832,6.7832,0,6.6334,6.6419,6.6539,6.6604,6.6703,6.6782,6.6877,6.6942,6.7032,6.7112,6.7165,6.724,6.733,6.7417,6.7474,6.7583,6.7607,6.7644,6.7658,6.764,6.7636,6.7676,6.7672,6.7684,6.7683,6.7682,6.7682,0,6.6268,6.6428,6.6535,6.6585,6.6727,6.6776,6.6837,6.6936,6.6999,6.7094,6.7136,6.7239,6.7296,6.7377,6.7448,6.743,6.7582,6.7571,6.762,6.7618,6.7648,6.7645,6.7744,6.7681,6.768,6.768,6.768,0,6.6266,6.636,6.65,6.6621,6.6659,6.6728,6.6836,6.6913,6.7013,6.7054,6.7128,6.7171,6.7269,6.7254,6.7392,6.7348,6.7402,6.7445,6.745,6.7463,6.7443,6.749,6.7575,6.7588,6.7478,6.7476,6.7475,0,6.6169,6.6331,6.6399,6.653,6.6615,6.6671,6.6749,6.6834,6.6894,6.6976,6.7042,6.7132,6.7137,6.7176,6.7234,6.7305,6.7363,6.7299,6.7419,6.7422,6.7393,6.7473,6.7465,6.7548,6.7454,6.7456,6.7458,0,6.6103,6.6272,6.629,6.6351,6.6475,6.6545,6.6633,6.6741,6.6792,6.6879,6.6957,6.7085,6.7095,6.7157,6.7202,6.7258,6.7326,6.7259,6.7263,6.7271,6.7448,6.7443,6.7456,6.7344,6.7347,6.7349,6.7441,0,6.6087,6.6176,6.6228,6.6354,6.642,6.6503,6.6586,6.6645,6.6682,6.6741,6.6855,6.694,6.7047,6.708,6.7115,6.7216,6.7211,6.7219,6.7207,6.7258,6.7291,6.7304,6.7153,6.7153,6.7153,6.7153,0,0,6.5975,6.6103,6.6171,6.6258,6.6318,6.637,6.6453,6.6517,6.6642,6.6683,6.6678,6.6869,6.6938,6.7066,6.7088,6.7129,6.7156,6.7132,6.7233,6.7241,6.7249,6.7283,6.7295,6.7154,6.7154,6.7154,6.7154,0,6.5985,6.6055,6.6134,6.6204,6.6309,6.6367,6.6387,6.6498,6.6539,6.6648,6.6688,6.6764,6.691,6.698,6.7035,6.712,6.7145,6.7146,6.7167,6.7231,6.7239,6.7247,6.7281,6.7292,6.7154,6.7154,6.7154,0,6.5936,6.602,6.6065,6.6201,6.6269,6.6352,6.6363,6.6448,6.6512,6.656,6.6666,6.6723,6.6821,6.6929,6.698,6.6976,6.7131,6.7093,6.7095,6.7102,6.7168,6.7178,6.7186,6.7071,6.707,6.707,0,0,6.5934,6.6015,6.6126,6.6209,6.6249,6.6335,6.6386,6.6427,6.6513,6.6547,6.662,6.6703,6.6791,6.6845,6.693,6.7036,6.7064,6.708,6.7084,6.7087,6.7095,6.7162,6.7171,6.7067,6.7067,6.7067,0,0,6.5932,6.6065,6.6086,6.6191,6.6273,6.6386,6.6434,6.6462,6.6546,6.6545,6.6616,6.664,6.6743,6.6796,6.6757,6.6928,6.6915,6.6926,6.6888,6.6894,6.6898,6.6883,6.6776,0,0,0,0,0,6.5983,6.6049,6.6067,6.6096,6.6264,6.6377,6.6399,6.6459,6.6451,6.6488,6.6555,6.6576,6.6791,6.6758,6.6785,6.6828,6.7038,6.7043,6.7048,6.7025,6.7031,6.7035,0,0,0,0,0,0,6.5995,6.6031,6.6066,6.618,6.6219,6.6375,6.6375,6.6393,6.6449,6.6452,6.6563,6.6579,6.6632,6.6747,6.6771,6.681,6.6768,6.704,6.7044,6.7048,6.7027,6.7032,6.7036,0,0,0,0,0,6.6005,6.6034,6.6287,6.618,6.6213,6.631,6.6372,6.6388,6.6432,6.6533,6.655,6.6473,6.6632,6.6656,6.6762,6.6798,6.6752,6.676,6.7043,6.7046,6.7049,6.7029,0,0,0,0,0,0,6.6012,6.6049,6.6295,6.6308,6.6158,6.6303,6.6327,6.6383,6.6511,6.6529,6.6446,6.6446,6.6632,6.6651,6.667,6.6791,6.6738,6.6747,6.6753,6.7045,6.7048,6.7051,0,0,0,0,0,0,6.6033,6.6059,6.6302,6.6271,6.6281,6.6295,6.6317,6.6414,6.6511,6.6417,6.6421,6.6445,6.6604,6.6648,6.6662,6.6811,6.6728,6.6737,6.6743,6.6746,6.7048,6.705,0,0,0,0,0,0,6.6045,6.6067,6.6268,6.6275,6.6284,6.6428,6.6382,6.655,6.6486,6.641,6.6482,6.648,6.66,6.6616,6.6657,6.68,6.6808,6.6728,6.6734,6.6738,6.6741,0,0,0,0,0,0,0,6.6055,6.5895,6.6221,6.6279,6.6286,6.6423,6.6426,6.6429,6.6486,6.6484,6.6483,6.6481,6.6679,6.6689,6.6698,6.679,0,0,6.6728,6.6732,0,0,0,0,0,0,0,0,6.5887,6.5893,6.6222,6.6224,6.6227,6.6423,6.6426,6.6429,6.6486,6.6484,6.6483,6.6482,6.6682,6.669,6.6697,0,0,0,0,0,0,0,0,0,0,0,0,0,0,0,6.6222,6.6224,0,6.6424,6.6426,6.6428,6.6485,6.6484,6.6483,6.6482,6.6684,6.669,6.6697,0,0,0,0,0,0,0,0,0,0,0,0,0,0,0,0,0,0,0,0,0,0,0,0,0,0,0,0,0,0,0,0,0,0,0,0,0,0,0,0,0,0,0,0,0,0,0,0,0,0,0,0,0,0,0,0,0,0,0,0,0,0,0,0,0,0,0,0,0]}]]]